Weather History for Ketchikan, AK

Change the Weather History Date:

Friday, November 23, 2012

  Actual Average Record
Temperature  
Mean Temperature 42 °F -  
Max Temperature 45 °F 43 °F 55 °F (1957)
Min Temperature 41 °F 33 °F 14 °F (1950)
Degree Days  
Heating Degree Days 22    
Moisture  
Dew Point 38 °F    
Average Humidity 85    
Maximum Humidity 93    
Minimum Humidity 80    
Precipitation  
Precipitation 0.72 in - - ()
Sea Level Pressure  
Sea Level Pressure 29.59 in    
Wind  
Wind Speed 20 mph (SE)    
Max Wind Speed 30 mph    
Max Gust Speed 38 mph    
Visibility 10 miles    
Events Rain    
Averages and records for this station are not official NWS values.
T = Trace of Precipitation, MM = Missing Value Source: NWS Daily Summary

Daily Weather History Graph

Daily Weather History Graph

Search for Another Location

Airport:

Trip Planner

Search our weather history database for the weather conditions in past years. The results will help you decide how hot, cold, wet, or windy it might be!

Date:

Astronomy

Nov. 23, 2012 Rise Set
Actual Time 7:37 AM AKST 3:29 PM AKST
Civil Twilight 6:54 AM AKST 4:12 PM AKST
Nautical Twilight 6:08 AM AKST 4:58 PM AKST
Astronomical Twilight 5:24 AM AKST 5:41 PM AKST
Moon 1:23 PM AKST (11/23) 2:22 AM AKST (11/23)
Length of Visible Light 9h 18m
Length of Day
7h 51m
Waxing Gibbous, 81% of the Moon is Illuminated
Nov 23
Waxing Gibbous
Nov 28
Full
Dec 6
Last Quarter
Dec 12
New
Dec 19
First Quarter

Hourly Weather History & Observations

Time (AKST) Temp. Windchill Dew Point Humidity Pressure Visibility Wind Dir Wind Speed Gust Speed Precip Events Conditions
12:24 AM 42.8 °F 35.8 °F 37.4 °F 81% 29.54 in 10.0 mi SSE 13.8 mph - N/A   Overcast
12:53 AM 43.0 °F 34.2 °F 37.0 °F 80% 29.55 in 10.0 mi SE 20.7 mph 26.5 mph N/A   Overcast
1:53 AM 42.1 °F 34.5 °F 37.0 °F 82% 29.55 in 10.0 mi SE 15.0 mph 24.2 mph N/A   Overcast
2:46 AM 41.0 °F 32.8 °F 37.4 °F 87% 29.55 in 10.0 mi SSE 16.1 mph 34.5 mph 0.02 in Rain Light Rain
3:53 AM 41.0 °F 32.8 °F 36.0 °F 82% 29.56 in 10.0 mi SSE 16.1 mph 24.2 mph 0.00 in   Overcast
4:53 AM 41.0 °F 33.1 °F 36.0 °F 82% 29.57 in 10.0 mi SSE 15.0 mph - N/A   Overcast
5:49 AM 41.0 °F 31.4 °F 37.4 °F 87% 29.55 in 10.0 mi SE 21.9 mph 31.1 mph N/A   Overcast
5:53 AM 41.0 °F 30.2 °F 37.0 °F 86% 29.56 in 10.0 mi SE 27.6 mph 32.2 mph N/A   Overcast
6:09 AM 41.0 °F 30.9 °F 35.6 °F 81% 29.55 in 10.0 mi ESE 24.2 mph 38.0 mph N/A   Overcast
6:53 AM 41.0 °F 30.7 °F 36.0 °F 82% 29.55 in 10.0 mi SE 25.3 mph 36.8 mph 0.01 in   Overcast
7:51 AM 42.8 °F 32.3 °F 37.4 °F 81% 29.57 in 10.0 mi SE 29.9 mph 35.7 mph N/A   Overcast
7:53 AM 42.1 °F 31.9 °F 37.0 °F 82% 29.57 in 10.0 mi SE 26.5 mph 35.7 mph N/A   Overcast
8:53 AM 42.1 °F 32.6 °F 37.0 °F 82% 29.59 in 10.0 mi SE 23.0 mph 33.4 mph 0.00 in Rain Light Rain
9:53 AM 42.1 °F 34.5 °F 37.0 °F 82% 29.61 in 10.0 mi SSE 15.0 mph 24.2 mph 0.02 in Rain Light Rain
10:53 AM 43.0 °F 33.8 °F 37.9 °F 82% 29.61 in 10.0 mi ESE 23.0 mph 29.9 mph 0.00 in   Overcast
11:53 AM 43.0 °F 33.8 °F 37.9 °F 82% 29.61 in 10.0 mi SE 23.0 mph 33.4 mph 0.00 in   Overcast
12:53 PM 42.8 °F 32.9 °F 37.4 °F 81% 29.61 in 10.0 mi SE 26.5 mph 33.4 mph N/A   Overcast
1:53 PM 42.1 °F 32.8 °F 37.9 °F 85% 29.62 in 10.0 mi SE 21.9 mph 33.4 mph 0.00 in Rain Light Rain
2:53 PM 42.1 °F 32.6 °F 37.9 °F 85% 29.61 in 10.0 mi SE 23.0 mph 32.2 mph 0.01 in Rain Light Rain
3:53 PM 42.8 °F 32.9 °F 39.2 °F 87% 29.59 in 10.0 mi SE 26.5 mph 34.5 mph N/A Rain Light Rain
4:53 PM 41.0 °F 30.0 °F 37.9 °F 89% 29.60 in 5.0 mi SE 28.8 mph 36.8 mph 0.12 in Rain Rain
5:53 PM 42.1 °F 31.7 °F 37.9 °F 85% 29.59 in 7.0 mi ESE 27.6 mph 35.7 mph 0.17 in Rain Light Rain
6:53 PM 42.1 °F 33.1 °F 39.0 °F 89% 29.61 in 9.0 mi SE 20.7 mph 31.1 mph 0.12 in Rain Light Rain
7:53 PM 42.1 °F 33.9 °F 39.0 °F 89% 29.62 in 10.0 mi SE 17.3 mph 28.8 mph 0.07 in Rain Light Rain
8:53 PM 43.0 °F 35.1 °F 39.9 °F 89% 29.63 in 10.0 mi SE 17.3 mph 27.6 mph 0.05 in   Overcast
9:53 PM 43.0 °F 34.8 °F 41.0 °F 93% 29.64 in 10.0 mi SE 18.4 mph 25.3 mph 0.00 in Rain Light Rain
10:53 PM 44.1 °F 34.8 °F 41.0 °F 89% 29.66 in 7.0 mi SE 25.3 mph 34.5 mph 0.10 in Rain Light Rain
11:53 PM 45.0 °F 37.6 °F 41.0 °F 86% 29.66 in 10.0 mi SE 17.3 mph 26.5 mph 0.05 in Rain Light Rain